Starlink 31806

operational
NORAD ID: 59640 Int'l Des: 2024-082 Owner: SPXS Country: US Constellation: starlink
LEOCIRCULAR

关于 Starlink 31806

正在加载描述...

实时位置

正在加载3D地球...

即将过境

高度历史

Altitude vs Time

uPlot chart will show altitude changes over time

两行轨道根数

1 59640U 24082K 25305.54756964 -.00000208 00000-0 19807-5 0 9992
2 59640 43.0033 143.5429 0001369 261.3171 98.7525 15.27577556 85219
Epoch: Nov 1, 2025 • Age: 19 hours

当前状态

高度 485.7 km
速度 7.62 km/s
星下点 -15.13°S, 37.6°W
发射日期 May 3, 2024
运行时间 1.5 years
类型 internet

技术详情

分类 Payload
质量 730.00 kg
干质量 700.00 kg
总质量 730.00 kg
长度 0.30 m
直径 4.10 m
跨度 29.00 m
形状 Box + pan
制造商 SPXS
平台类型 Starlink V2M
阶段状态 In Orbit
所有者/国家 SPXS/US

大型星座

Loading constellations...